EW4337 Weather Reports


Display with metric or nautical units.
time (UTC)temp
F
wind
direction
speed
MPH
gust
MPH
rain 1hr
in
rain 24hr
in
rain mn
in
humidity
%
barometer
mb
20260904013203 67 215 3.0 9.0 0.02 0.08 0.06 96 1010.0
20260904012703 67 231 5.0 9.0 0.02 0.08 0.06 96 1010.1
20260904012203 67 213 3.0 8.0 0.06 0.08 0.06 96 1010.2
20260904011202 67 237 2.0 7.0 0.04 0.06 0.04 95 1010.1
20260904010703 67 204 2.0 7.0 0.04 0.06 0.04 95 1010.2
20260904010203 67 210 3.0 10.0 0.04 0.06 0.04 95 1010.3
20260904005702 67 189 2.0 6.0 0.04 0.06 0.04 95 1010.4
20260904005203 67 210 3.0 6.0 0.04 0.06 0.04 95 1010.5
20260904004703 67 209 1.0 7.0 0.04 0.06 0.04 95 1010.5
20260904004203 67 192 2.0 10.0 0.04 0.06 0.04 95 1010.6
20260904003703 67 187 5.0 12.0 0.03 0.06 0.03 95 1010.7
20260904002703 67 212 2.0 8.0 0.03 0.06 0.03 95 1010.8
20260904002203 67 197 5.0 13.0 0.00 0.02 0.00 94 1010.8
20260904001703 67 183 5.0 10.0 0.00 0.02 0.00 94 1010.9
20260904000703 67 206 2.0 12.0 0.00 0.02 0.00 94 1011.2
20260904000204 67 195 2.0 7.0 0.00 0.02 0.00 94 1011.1
20260903235703 67 194 3.0 7.0 0.00 0.02 0.00 94 1011.1
20260903235203 67 200 3.0 9.0 0.00 0.02 0.00 94 1011.2
20260903234703 67 177 2.0 8.0 0.00 0.02 0.00 94 1011.2
20260903234203 67 173 2.0 6.0 0.00 0.02 0.00 94 1011.3
20260903233703 66 197 5.0 9.0 0.00 0.02 0.00 94 1011.4
20260903233203 66 183 3.0 7.0 0.00 0.02 0.00 94 1011.7
20260903232703 66 185 4.0 10.0 0.00 0.02 0.00 94 1011.7
20260903232203 66 206 3.0 6.0 0.00 0.02 0.00 94 1011.9
20260903231703 66 201 2.0 8.0 0.00 0.02 0.00 94 1012.1
20260903231203 66 190 2.0 7.0 0.00 0.02 0.00 94 1012.1
20260903230704 66 179 2.0 5.0 0.00 0.02 0.00 94 1012.2
20260903230203 66 184 1.0 3.0 0.00 0.02 0.00 93 1012.3
20260903225204 66 198 2.0 8.0 0.00 0.02 0.00 93 1012.2
20260903224204 66 212 2.0 5.0 0.00 0.02 0.00 93 1012.5
20260903223203 66 174 2.0 6.0 0.00 0.02 0.00 93 1012.4
20260903222703 66 224 1.0 7.0 0.00 0.02 0.00 93 1012.7
20260903222203 66 219 2.0 8.0 0.00 0.02 0.00 93 1012.6
20260903221703 66 225 2.0 5.0 0.00 0.02 0.00 93 1012.8
20260903221203 66 225 2.0 6.0 0.00 0.02 0.00 93 1012.8
20260903220703 66 237 3.0 8.0 0.00 0.02 0.00 93 1012.8
20260903220203 66 205 2.0 3.0 0.00 0.02 0.00 93 1012.9
20260903215704 66 235 3.0 6.0 0.00 0.02 0.02 93 1012.9
20260903215204 66 224 3.0 9.0 0.00 0.02 0.02 93 1012.9
20260903214704 66 235 2.0 7.0 0.00 0.02 0.02 93 1012.9
20260903214204 66 220 2.0 6.0 0.00 0.02 0.02 93 1013.1
20260903213203 66 203 2.0 7.0 0.00 0.02 0.02 92 1013.3
20260903212704 66 212 3.0 9.0 0.00 0.02 0.02 92 1013.4
20260903212203 66 216 2.0 7.0 0.00 0.02 0.02 92 1013.3
20260903211703 66 203 2.0 7.0 0.00 0.02 0.02 92 1013.5
20260903211204 66 216 1.0 6.0 0.00 0.02 0.02 92 1013.4
20260903210704 66 225 3.0 9.0 0.00 0.02 0.02 92 1013.6
20260903205704 65 214 1.0 3.0 0.00 0.02 0.02 91 1013.5
20260903204704 66 192 1.0 6.0 0.00 0.02 0.02 91 1013.4
20260903204203 66 185 0.0 3.0 0.00 0.02 0.02 91 1013.6
20260903203703 66 228 1.0 5.0 0.00 0.02 0.02 91 1013.7
20260903203203 66 243 0.0 3.0 0.00 0.02 0.02 91 1013.7
20260903202703 66 228 2.0 5.0 0.00 0.02 0.02 91 1013.7
20260903202203 66 234 1.0 5.0 0.00 0.02 0.02 91 1013.6
20260903201703 65 237 3.0 9.0 0.00 0.02 0.02 91 1013.7
20260903201204 65 236 4.0 7.0 0.00 0.02 0.02 90 1013.8
20260903200704 65 211 2.0 5.0 0.00 0.02 0.02 90 1013.6
20260903200203 65 211 2.0 7.0 0.00 0.02 0.02 89 1013.7
20260903195704 66 217 1.0 5.0 0.00 0.02 0.02 89 1013.8
20260903195203 66 217 1.0 2.0 0.00 0.02 0.02 89 1013.9
20260903194703 66 218 0.0 2.0 0.00 0.02 0.02 88 1014.0
20260903194204 66 201 0.0 2.0 0.00 0.02 0.02 88 1014.0
20260903193204 66 210 0.0 2.0 0.00 0.02 0.02 87 1014.1
20260903192704 66 234 2.0 3.0 0.00 0.02 0.02 87 1014.2
20260903192203 66 231 1.0 3.0 0.00 0.02 0.02 86 1014.2
20260903191703 67 229 2.0 3.0 0.00 0.02 0.02 86 1014.1
20260903191203 67 224 1.0 3.0 0.00 0.02 0.02 86 1013.8
20260903190704 67 230 2.0 7.0 0.00 0.02 0.02 85 1013.9
20260903190204 67 239 2.0 3.0 0.00 0.02 0.02 85 1013.9
20260903185204 67 245 2.0 3.0 0.00 0.02 0.02 85 1013.8
20260903184704 67 205 2.0 6.0 0.00 0.02 0.02 84 1013.8
20260903184204 68 207 3.0 5.0 0.00 0.02 0.02 84 1014.0
20260903183203 68 244 3.0 6.0 0.00 0.02 0.02 83 1014.1
20260903182704 68 255 3.0 8.0 0.00 0.02 0.02 83 1014.0
20260903182204 68 240 3.0 6.0 0.00 0.02 0.02 83 1014.2
20260903181704 68 238 4.0 8.0 0.00 0.02 0.02 82 1013.9
20260903181204 68 244 5.0 8.0 0.00 0.02 0.02 81 1013.7
20260903180704 68 238 3.0 7.0 0.00 0.02 0.02 81 1013.7
20260903175704 69 231 4.0 9.0 0.00 0.02 0.02 80 1013.9
20260903175204 69 248 5.0 9.0 0.00 0.02 0.02 80 1014.0
20260903174704 69 243 5.0 12.0 0.00 0.02 0.02 79 1014.0
20260903174206 69 256 4.0 12.0 0.00 0.02 0.02 79 1014.2
20260903173704 69 243 7.0 12.0 0.00 0.02 0.02 79 1014.0
20260903172703 69 282 7.0 12.0 0.00 0.02 0.02 78 1013.9
20260903172202 69 267 6.0 12.0 0.00 0.02 0.02 78 1014.0
20260903171702 69 258 6.0 12.0 0.00 0.02 0.02 78 1013.9
20260903171202 69 278 6.0 13.0 0.00 0.02 0.02 78 1014.0
20260903170703 70 266 6.0 14.0 0.00 0.02 0.02 77 1013.9
20260903170203 70 272 9.0 14.0 0.00 0.02 0.02 77 1013.8
20260903165702 70 273 10.0 17.0 0.00 0.02 0.02 77 1013.8
20260903165203 70 267 7.0 16.0 0.00 0.02 0.02 78 1013.8
20260903164702 70 258 7.0 15.0 0.00 0.02 0.02 78 1013.8
20260903163203 70 279 7.0 14.0 0.00 0.02 0.02 76 1013.8
20260903162704 70 267 8.0 15.0 0.00 0.02 0.02 76 1013.7
20260903161703 71 269 8.0 15.0 0.00 0.02 0.02 75 1013.8
20260903161202 71 268 12.0 16.0 0.00 0.02 0.02 74 1013.8
20260903160703 71 281 9.0 16.0 0.00 0.02 0.02 74 1013.8
20260903160203 71 263 11.0 20.0 0.00 0.02 0.02 75 1014.0
20260903155703 71 261 6.0 18.0 0.00 0.02 0.02 76 1013.8
20260903155203 71 254 9.0 15.0 0.00 0.02 0.02 77 1013.8
20260903154703 71 261 8.0 16.0 0.00 0.02 0.02 77 1013.9
20260903154203 71 246 7.0 15.0 0.00 0.02 0.02 77 1013.8
20260903153703 71 259 11.0 20.0 0.00 0.02 0.02 77 1013.9
20260903151703 70 270 9.0 17.0 0.00 0.02 0.02 78 1013.7
20260903151203 70 261 9.0 20.0 0.00 0.02 0.02 78 1013.7
20260903150203 71 260 10.0 21.0 0.00 0.02 0.02 77 1013.6
20260903145703 71 244 12.0 20.0 0.00 0.02 0.02 77 1013.5
20260903145202 72 257 12.0 20.0 0.00 0.02 0.02 76 1013.5
20260903144703 72 255 9.0 18.0 0.00 0.02 0.02 77 1013.5
20260903144203 72 274 12.0 16.0 0.00 0.02 0.02 77 1013.5
20260903143704 72 264 7.0 16.0 0.00 0.02 0.02 79 1013.6
20260903143203 71 259 10.0 17.0 0.00 0.02 0.02 79 1013.5
20260903142203 71 249 10.0 21.0 0.00 0.02 0.02 79 1013.4
20260903141703 71 255 9.0 20.0 0.00 0.02 0.02 78 1013.5
20260903140703 72 283 12.0 20.0 0.00 0.02 0.02 78 1013.4
20260903140203 72 260 13.0 21.0 0.00 0.02 0.02 78 1013.5
20260903135704 72 266 12.0 21.0 0.00 0.02 0.02 77 1013.4
20260903135203 73 246 11.0 20.0 0.00 0.02 0.02 77 1013.3
20260903134704 73 282 10.0 16.0 0.00 0.02 0.02 77 1013.2
20260903134203 72 265 13.0 20.0 0.00 0.02 0.02 78 1013.4
20260903133704 72 256 10.0 20.0 0.00 0.02 0.02 79 1013.3
20260903132703 72 272 13.0 21.0 0.00 0.02 0.02 79 1013.2
20260903132204 72 276 12.0 17.0 0.00 0.02 0.02 78 1013.2
20260903131703 73 264 13.0 22.0 0.00 0.02 0.02 79 1013.1
20260903131204 72 275 12.0 20.0 0.00 0.02 0.02 80 1013.2
20260903130705 72 278 8.0 20.0 0.00 0.02 0.02 81 1013.2
20260903130204 72 257 8.0 20.0 0.00 0.02 0.02 81 1013.2
20260903125704 72 254 10.0 16.0 0.00 0.02 0.02 82 1013.1
20260903124703 72 273 11.0 18.0 0.00 0.02 0.02 82 1013.0
20260903124204 72 249 10.0 16.0 0.00 0.02 0.02 82 1013.0
20260903123703 71 245 8.0 15.0 0.00 0.02 0.02 83 1012.9
20260903122704 72 282 12.0 23.0 0.00 0.02 0.02 81 1012.9
20260903122204 72 283 7.0 18.0 0.00 0.02 0.02 82 1012.9
20260903121704 72 276 7.0 17.0 0.00 0.02 0.02 82 1012.8
20260903120704 72 252 10.0 20.0 0.00 0.02 0.02 82 1012.7
20260903120203 72 267 7.0 18.0 0.00 0.02 0.02 82 1012.6
20260903115704 71 251 7.0 15.0 0.00 0.02 0.02 83 1012.6
20260903115203 71 273 10.0 17.0 0.00 0.02 0.02 83 1012.7
20260903114703 71 254 9.0 18.0 0.00 0.02 0.02 83 1012.6
20260903114204 71 258 8.0 14.0 0.00 0.02 0.02 83 1012.6
20260903113704 71 262 6.0 10.0 0.00 0.02 0.02 84 1012.6
20260903113204 71 263 9.0 15.0 0.00 0.02 0.02 83 1012.6
20260903112704 71 254 7.0 16.0 0.00 0.02 0.02 82 1012.5
20260903111704 71 252 11.0 20.0 0.00 0.02 0.02 81 1012.4
20260903111204 72 248 10.0 22.0 0.01 0.02 0.02 82 1012.3
20260903110704 72 241 12.0 23.0 0.01 0.02 0.02 82 1012.4
20260903110204 72 234 13.0 21.0 0.01 0.02 0.02 81 1012.3
20260903105704 72 244 12.0 21.0 0.01 0.02 0.02 80 1012.3
20260903104704 72 237 12.0 20.0 0.01 0.02 0.02 82 1012.3
20260903104205 72 280 12.0 22.0 0.01 0.02 0.02 83 1012.3
20260903103704 71 248 10.0 18.0 0.01 0.02 0.02 85 1012.5
20260903103205 71 260 9.0 16.0 0.01 0.02 0.02 85 1012.3
20260903102704 71 253 12.0 21.0 0.01 0.02 0.02 85 1012.4
20260903102204 71 240 7.0 13.0 0.01 0.02 0.02 86 1012.4
20260903101704 71 237 10.0 16.0 0.01 0.02 0.02 86 1012.4
20260903101202 71 275 11.0 18.0 0.00 0.02 0.02 87 1012.5
20260903100702 70 251 10.0 20.0 0.00 0.02 0.02 90 1012.5
20260903100202 70 259 6.0 16.0 0.00 0.02 0.02 92 1012.4
20260903095203 68 239 10.0 20.0 0.00 0.02 0.02 94 1012.5
20260903094702 68 237 7.0 14.0 0.00 0.02 0.02 96 1012.4
20260903094202 67 248 8.0 18.0 0.00 0.02 0.02 96 1012.3
20260903093703 67 242 9.0 15.0 0.00 0.02 0.02 96 1012.3
20260903092702 67 240 6.0 14.0 0.00 0.02 0.02 97 1012.4
20260903092202 67 243 5.0 8.0 0.00 0.02 0.02 97 1012.3
20260903091702 67 239 5.0 12.0 0.00 0.02 0.02 97 1012.3
20260903091202 66 227 5.0 12.0 0.00 0.02 0.02 97 1012.4
20260903085703 66 237 4.0 9.0 0.00 0.02 0.02 97 1012.3
20260903085202 66 239 4.0 9.0 0.00 0.02 0.02 97 1012.2
20260903084703 66 246 4.0 12.0 0.00 0.02 0.02 97 1012.2
20260903084202 66 238 2.0 7.0 0.00 0.02 0.02 96 1012.1
20260903083705 66 236 3.0 8.0 0.01 0.02 0.02 96 1012.2
20260903083203 66 215 5.0 10.0 0.01 0.02 0.02 96 1012.2
20260903082702 66 241 2.0 9.0 0.01 0.02 0.02 96 1012.2
20260903081703 66 226 3.0 8.0 0.01 0.02 0.02 96 1012.2
20260903081203 65 220 5.0 10.0 0.02 0.02 0.02 96 1012.2
20260903080703 65 229 3.0 7.0 0.02 0.02 0.02 96 1012.1
20260903080202 65 210 4.0 7.0 0.02 0.02 0.02 96 1012.2
20260903075703 65 234 3.0 9.0 0.02 0.02 0.02 96 1012.2
20260903075203 65 237 4.0 7.0 0.02 0.02 0.02 96 1012.3
20260903074703 65 225 3.0 7.0 0.02 0.02 0.02 95 1012.3
20260903074203 65 219 3.0 9.0 0.02 0.02 0.02 96 1012.4
20260903073703 65 231 5.0 16.0 0.01 0.01 0.01 95 1012.3
20260903073203 65 215 2.0 7.0 0.01 0.01 0.01 95 1012.4
20260903072203 65 213 5.0 10.0 0.01 0.01 0.01 95 1012.3
20260903071703 65 209 3.0 10.0 0.01 0.01 0.01 95 1012.3
20260903071203 65 224 5.0 12.0 0.00 0.00 0.00 95 1012.2
20260903070703 65 227 5.0 10.0 0.00 0.00 0.00 95 1012.2
20260903070203 64 208 6.0 14.0 0.00 0.00 0.00 95 1012.2
20260903065703 64 222 3.0 10.0 0.00 0.00 0.00 95 1012.2
20260903065203 64 215 5.0 10.0 0.00 0.00 0.00 95 1012.1
20260903064703 64 231 3.0 9.0 0.00 0.00 0.00 95 1012.1
20260903064203 64 231 5.0 10.0 0.00 0.00 0.00 95 1012.0
20260903063703 64 211 6.0 14.0 0.00 0.00 0.00 95 1012.0
20260903063203 64 222 3.0 9.0 0.00 0.00 0.00 95 1012.0
20260903062203 63 217 3.0 10.0 0.00 0.00 0.00 95 1012.0
20260903061203 63 185 3.0 10.0 0.00 0.00 0.00 94 1012.1
20260903060704 63 187 5.0 13.0 0.00 0.00 0.00 94 1012.1
20260903055703 63 187 5.0 12.0 0.00 0.00 0.00 94 1012.3
20260903055204 63 180 5.0 8.0 0.00 0.00 0.00 94 1012.3
20260903054703 63 216 3.0 8.0 0.00 0.00 0.00 94 1012.4
20260903054203 63 173 5.0 14.0 0.00 0.00 0.00 93 1012.4
20260903053703 63 200 5.0 9.0 0.00 0.00 0.00 93 1012.5
20260903053203 63 183 3.0 6.0 0.00 0.00 0.00 93 1012.5
20260903052703 63 196 2.0 8.0 0.00 0.00 0.00 93 1012.5
20260903052203 63 199 4.0 10.0 0.00 0.00 0.00 92 1012.6
20260903051704 63 199 5.0 12.0 0.00 0.00 0.00 92 1012.6
20260903051204 63 176 2.0 8.0 0.00 0.00 0.00 92 1012.6
20260903050704 63 189 2.0 8.0 0.00 0.00 0.00 91 1012.6
20260903050204 63 212 4.0 12.0 0.00 0.00 0.00 91 1012.4
20260903045703 63 189 5.0 12.0 0.00 0.00 0.00 90 1012.4
20260903045203 63 221 5.0 12.0 0.00 0.00 0.00 90 1012.5
20260903044703 63 194 3.0 12.0 0.00 0.00 0.00 90 1012.2
20260903044204 63 193 3.0 10.0 0.00 0.00 0.00 90 1012.6
20260903043204 63 202 2.0 10.0 0.00 0.00 0.00 90 1012.6
20260903042703 63 162 4.0 10.0 0.00 0.00 0.00 90 1012.4
20260903042203 63 185 3.0 10.0 0.00 0.00 0.00 90 1012.6
20260903041704 63 199 5.0 12.0 0.00 0.00 0.00 90 1012.6
20260903041204 63 187 3.0 8.0 0.00 0.00 0.00 90 1012.7
20260903040703 63 169 4.0 6.0 0.00 0.00 0.00 90 1012.6
20260903040204 63 179 3.0 12.0 0.00 0.00 0.00 90 1012.6
20260903035704 63 181 3.0 9.0 0.00 0.00 0.00 90 1012.7
20260903035203 63 180 2.0 7.0 0.00 0.00 0.00 91 1012.8
20260903034704 63 189 3.0 9.0 0.00 0.00 0.00 91 1012.8
20260903033704 63 219 3.0 10.0 0.00 0.00 0.00 91 1012.9
20260903033203 63 235 2.0 8.0 0.00 0.00 0.00 91 1013.0
20260903032703 63 218 5.0 8.0 0.00 0.00 0.00 90 1013.1
20260903032203 63 202 3.0 12.0 0.00 0.00 0.00 90 1013.1
20260903031703 63 192 2.0 9.0 0.00 0.00 0.00 90 1013.1
20260903031203 63 235 3.0 9.0 0.00 0.00 0.00 90 1013.3
20260903030703 63 199 4.0 10.0 0.00 0.00 0.00 90 1013.3
20260903030203 63 214 4.0 8.0 0.00 0.00 0.00 89 1013.3
20260903025704 63 214 2.0 10.0 0.00 0.00 0.00 89 1013.4
20260903025203 63 203 2.0 8.0 0.00 0.00 0.00 89 1013.4
20260903024203 63 219 2.0 7.0 0.00 0.00 0.00 88 1013.4
20260903023703 63 176 3.0 9.0 0.00 0.00 0.00 88 1013.4
20260903023203 63 163 3.0 12.0 0.00 0.00 0.00 88 1013.5
20260903022703 63 186 3.0 12.0 0.00 0.00 0.00 89 1013.5
20260903021703 63 227 2.0 8.0 0.00 0.00 0.00 89 1013.6
20260903021203 63 221 3.0 8.0 0.00 0.00 0.00 90 1013.7
20260903020204 63 196 3.0 9.0 0.00 0.00 0.00 91 1013.6
20260903015703 62 198 3.0 9.0 0.00 0.00 0.00 91 1013.6
20260903015204 62 195 3.0 12.0 0.00 0.00 0.00 92 1013.8
20260903014703 62 190 5.0 12.0 0.00 0.00 0.00 92 1013.9
20260903014203 62 164 5.0 10.0 0.00 0.00 0.00 92 1013.9